Probability
0 0 0 0 0 0 1 2 2 1 0 0 1 2 3 3 3 3 3 1 0 0 0 0 0 0 0 0 0 0 0 0 0 0 0 0 0 0 0 0 0 0 0
0 0 0 1 1 0 0 1 2 1 0 0 0 1 3 3 3 3 3 2 1 0 0 0 0 0 0 0 0 0 0 0 0 0 0 0 0 0 0 0 0 0 0
0 0 1 2 2 1 0 0 1 1 0 0 0 1 2 3 3 3 3 3 2 1 0 0 0 0 0 0 0 0 0 0 0 0 0 0 0 0 0 1 0 0 0
0 0 1 2 3 2 1 1 0 0 0 0 1 1 1 2 3 3 3 3 3 1 0 0 0 0 0 0 0 0 0 0 0 0 0 0 0 0 0 0 0 0 0
0 0 1 2 3 3 3 2 1 0 0 0 1 1 1 1 3 3 3 3 3 2 1 0 0 0 0 0 0 0 0 0 0 0 0 0 0 0 0 0 0 0 0
0 0 0 2 3 4 3 3 1 0 0 0 1 1 0 1 2 3 3 3 3 2 1 0 0 0 0 0 0 0 0 0 0 0 0 0 0 0 0 0 0 0 0
0 0 0 1 2 3 3 3 2 1 0 0 0 0 0 0 1 2 3 3 3 3 1 1 0 0 0 0 0 0 0 0 0 0 0 0 0 0 0 0 0 0 0
0 1 1 0 1 2 2 2 2 1 0 0 0 0 0 0 0 1 2 3 3 3 3 2 1 0 0 0 0 0 0 0 0 0 0 0 0 0 0 0 0 0 0
1 2 2 1 0 1 1 1 1 1 0 0 0 0 0 0 0 0 1 2 3 3 3 2 1 0 0 0 0 0 0 0 0 0 0 0 0 0 0 0 0 0 0
2 2 2 1 0 0 0 0 0 0 0 0 0 0 0 0 0 0 0 1 3 3 3 2 1 0 0 0 0 0 0 0 0 0 0 0 0 0 0 0 0 0 0
1 1 1 1 0 0 0 1 1 0 0 0 0 0 0 0 0 0 0 1 2 3 3 2 1 0 0 0 0 0 0 0 0 0 0 0 0 0 0 0 0 0 0
0 1 2 2 1 0 1 2 2 1 0 0 0 0 0 0 0 0 0 1 2 3 3 2 1 0 0 0 0 0 0 0 0 0 0 0 0 0 0 0 0 0 0
1 2 4 4 3 2 2 3 2 1 0 0 1 1 1 0 0 0 0 1 3 3 2 1 1 0 0 0 0 0 0 0 0 0 0 0 0 0 0 0 0 0 0
2 3 4 5 5 4 3 3 3 1 0 1 2 2 2 1 0 0 0 2 4 5 3 1 1 0 0 0 0 0 0 0 0 0 0 0 0 0 0 0 0 0 0
2 3 4 6 6 4 4 4 5 3 1 1 1 1 2 1 1 1 1 2 4 4 3 2 1 0 0 0 0 0 0 0 0 0 0 0 0 0 0 0 0 0 0
1 3 5 6 6 5 4 4 5 5 3 2 1 1 1 2 2 2 2 2 3 3 2 1 0 0 0 0 0 0 1 1 1 0 0 0 0 0 0 0 0 0 0
1 2 3 4 5 6 5 4 4 5 4 3 3 2 1 1 3 3 3 3 1 1 1 1 0 0 0 0 0 0 1 2 1 1 1 1 0 0 0 0 0 0 0
0 1 1 3 4 5 5 4 4 5 5 4 3 3 2 1 2 3 3 2 1 0 1 1 0 0 0 0 0 0 1 2 1 1 1 1 0 0 0 0 0 0 0
0 0 1 2 3 4 5 5 4 4 4 3 3 3 2 1 1 2 3 2 1 0 0 0 0 0 0 0 0 0 1 2 2 1 1 0 0 0 0 0 0 0 0
0 0 0 1 3 3 4 5 5 4 3 3 3 3 2 1 1 1 1 1 1 0 0 0 0 0 0 0 0 0 0 1 2 2 1 0 0 0 0 0 0 0 0
0 0 0 1 2 3 3 4 4 3 3 3 3 3 3 2 2 1 0 0 0 0 0 0 0 0 0 0 0 0 0 0 1 2 2 1 0 0 0 0 0 0 0
0 0 0 1 2 3 3 3 3 3 3 3 3 3 3 3 3 2 1 0 0 0 0 0 0 0 0 0 0 0 0 0 0 1 1 1 0 0 0 0 0 0 0
0 0 0 0 1 3 3 3 3 2 2 3 3 3 3 3 3 2 1 0 0 0 0 0 0 0 0 0 0 0 0 0 0 0 0 0 0 0 0 0 0 0 0
0 0 0 0 1 2 3 3 3 2 2 2 3 3 3 3 3 3 1 0 0 0 0 0 0 0 0 0 0 0 0 0 0 0 0 0 0 0 0 0 0 0 0
0 0 0 0 1 2 3 3 3 3 1 1 2 3 3 3 3 3 2 1 1 0 0 0 0 0 0 0 0 0 0 0 0 0 0 0 0 0 0 0 0 0 0
0 0 0 0 1 2 3 3 3 3 2 1 1 3 3 3 3 3 3 2 2 1 0 0 0 0 0 0 0 0 0 0 0 0 0 0 0 0 0 0 0 0 0
Wind_Speed
5 6 5 5 6 8 8 8 8 8 7 8 8 8 8 8 8 8 8 8 8 8 9 10 10 11 11 11 11 11 12 12 11 11 11 11 11 11 11 9 8 8 11
6 6 5 5 7 8 8 8 8 7 7 7 7 7 8 8 8 8 8 7 7 8 8 9 10 10 10 10 10 11 11 11 11 10 9 10 11 11 10 10 9 8 10
7 6 6 5 7 8 8 8 7 7 7 7 7 7 8 8 7 7 7 7 7 7 8 9 9 10 9 9 9 10 10 10 9 8 5 6 8 10 10 10 10 10 10
7 6 6 6 7 8 8 7 7 7 7 7 7 7 7 7 7 7 7 6 7 7 8 8 9 9 9 9 9 9 9 9 8 5 5 6 6 9 9 10 10 10 9
6 6 6 6 7 8 8 7 6 6 6 7 7 7 7 6 7 7 7 6 6 6 7 8 8 9 8 9 9 9 9 8 5 4 5 5 5 8 8 9 10 9 9
6 5 6 5 7 7 7 7 6 6 6 6 7 6 6 6 5 6 6 6 5 6 6 7 8 8 8 8 8 8 8 6 3 4 5 4 5 7 8 8 9 8 8
6 5 5 5 6 7 7 7 6 6 6 6 6 6 6 5 5 5 6 6 6 6 6 6 7 7 7 7 7 7 6 4 3 4 4 3 5 7 7 7 7 7 7
5 4 4 4 4 5 6 6 5 5 6 6 6 6 6 5 4 4 5 5 5 6 6 6 6 6 6 6 6 6 5 2 3 3 3 3 5 5 5 6 6 6 6
4 4 3 4 4 4 4 5 4 4 5 5 6 6 5 4 4 4 4 4 5 5 6 6 6 6 5 6 6 6 5 3 2 2 2 3 4 3 4 4 5 4 5
3 3 3 3 3 4 4 4 4 4 4 4 5 5 5 5 4 4 3 4 5 5 5 5 5 5 5 5 6 5 4 1 2 2 1 3 3 2 3 3 3 3 4
2 2 2 2 2 2 3 4 4 4 4 4 4 5 3 2 2 3 3 3 4 5 5 4 5 5 5 5 5 4 1 1 1 1 1 3 2 2 1 2 1 2 2
4 3 2 2 2 2 2 3 3 2 3 2 2 3 2 1 1 2 4 3 4 4 4 5 5 4 2 2 3 2 1 1 0 0 1 2 1 1 1 1 0 1 1
5 3 3 3 3 2 2 2 2 2 2 2 2 2 2 1 1 1 1 1 2 2 3 3 3 2 1 1 1 1 1 1 1 0 1 2 2 2 1 1 0 0 0
5 5 4 4 3 3 3 2 2 2 2 2 2 2 2 1 1 1 0 1 1 1 2 2 1 1 1 1 1 1 1 1 1 1 1 2 3 3 2 1 1 1 1
5 5 5 4 4 3 3 3 2 3 2 2 2 2 2 2 1 1 1 1 1 1 2 2 2 2 2 1 1 2 2 2 1 1 0 1 3 3 3 2 2 2 2
6 6 5 5 5 4 4 3 3 3 2 2 2 3 3 2 2 1 1 1 2 2 1 2 2 2 2 1 2 2 2 2 2 2 1 1 1 2 3 3 2 3 3
7 6 6 6 5 5 5 4 3 3 3 2 2 3 3 3 3 2 2 2 1 2 2 2 2 2 2 2 2 2 2 2 2 2 2 1 1 0 2 3 3 3 3
6 6 6 5 6 6 5 5 3 3 3 3 2 3 4 3 3 3 2 2 2 2 2 2 2 2 2 1 1 2 2 2 2 2 2 1 1 1 1 3 4 4 4
7 6 6 6 6 6 6 5 4 4 3 3 3 2 3 3 4 3 3 2 3 3 2 2 2 2 2 2 2 2 2 2 2 3 3 2 2 2 2 2 3 4 4
6 6 6 6 6 6 5 4 4 4 4 3 3 3 3 3 3 3 3 3 3 3 3 3 3 2 2 2 2 2 3 3 3 3 3 3 2 2 2 2 2 2 4
6 6 7 6 6 6 5 5 4 5 4 4 3 4 4 4 4 3 3 3 4 4 4 4 3 3 2 1 2 2 3 4 4 3 3 3 3 3 3 3 3 3 3
6 6 6 7 6 7 6 5 4 4 4 4 3 4 5 5 5 4 4 3 4 4 5 5 4 3 2 2 2 2 2 3 3 3 3 3 4 3 3 3 3 3 4
5 5 5 6 6 7 7 5 3 3 3 4 4 4 5 5 5 5 5 4 4 4 5 5 5 5 4 3 3 3 3 3 2 2 4 4 4 4 4 4 4 4 4
4 4 4 5 6 6 7 7 7 6 5 5 4 4 4 5 5 5 5 5 4 4 4 5 5 5 5 4 3 3 3 2 2 2 2 3 4 5 5 4 4 5 5
3 3 3 3 4 5 6 7 7 6 5 4 4 4 4 4 4 4 5 5 5 5 5 5 5 5 5 5 4 3 3 3 4 4 4 4 4 4 4 5 4 4 5
2 2 2 3 3 4 5 6 7 7 5 4 4 4 4 3 3 4 4 4 5 4 5 5 5 6 6 6 5 4 3 3 4 4 5 5 5 4 4 4 5 4 4
Wind_Direction
157 154 150 151 142 133 127 123 117 115 116 112 114 114 114 110 106 101 97 95 93 91 90 92 90 88 84 82 79 77 77 74 73 74 74 73 72 74 71 66 71 77 73
150 153 145 152 147 137 127 119 115 113 113 115 112 115 112 109 106 104 102 97 94 92 93 94 93 90 87 85 84 82 80 77 74 71 74 80 74 72 71 64 63 72 73
146 150 152 144 143 137 128 122 118 115 114 115 115 108 108 108 106 105 105 101 98 97 95 94 95 92 89 88 87 85 83 80 75 72 76 82 82 76 72 68 69 70 72
148 150 149 132 140 136 130 126 124 124 121 116 110 109 104 107 106 104 104 103 101 100 99 99 97 94 90 88 89 88 85 81 74 71 76 74 79 79 76 73 71 70 70
149 151 138 130 138 138 134 130 127 125 122 119 113 107 104 103 107 104 102 98 100 100 100 99 99 98 95 90 88 87 85 81 75 80 77 78 80 81 77 73 71 69 67
148 145 134 129 135 138 136 132 128 126 123 117 114 108 102 94 103 107 105 100 99 105 103 100 102 103 100 94 91 88 85 79 84 79 75 74 79 82 80 77 72 68 67
150 146 140 124 127 131 133 130 126 124 120 116 115 109 102 99 91 107 106 105 101 102 101 99 103 106 104 97 92 90 88 76 78 77 71 71 76 80 81 81 77 73 71
150 150 145 120 117 124 129 129 127 126 120 115 112 110 103 98 109 98 110 111 109 104 103 103 106 107 103 101 96 88 78 63 90 86 80 76 69 74 79 83 82 76 75
149 150 150 150 144 129 122 123 123 120 120 116 110 108 103 95 102 95 90 113 116 110 106 105 109 110 105 106 99 87 70 35 77 80 78 72 57 70 79 82 82 80 78
152 162 165 167 166 164 154 124 114 108 107 104 101 98 99 99 99 99 94 106 112 110 108 109 107 109 104 102 93 82 67 63 73 71 71 68 47 58 75 79 78 78 77
166 174 184 188 184 178 167 143 133 116 104 107 107 99 107 122 121 111 77 89 104 104 107 110 110 105 102 104 97 90 123 88 65 51 57 49 30 35 65 69 72 78 75
197 196 193 189 188 198 175 161 157 154 139 139 132 126 124 112 93 83 76 84 96 100 111 108 108 117 128 132 124 147 167 155 166 108 70 32 358 340 329 350 63 70 66
205 204 211 207 196 198 192 175 163 163 163 161 148 138 135 129 121 115 105 132 136 137 139 130 140 146 149 148 179 186 201 219 235 211 76 16 318 312 285 263 267 312 343
212 211 209 207 204 200 212 196 174 177 177 173 162 155 157 160 163 154 139 197 181 174 167 172 172 164 177 187 211 210 216 231 248 261 50 6 327 308 285 250 257 261 270
221 219 214 205 206 200 210 206 189 189 187 182 180 173 181 187 189 183 180 221 204 188 186 188 189 189 194 197 220 226 232 234 240 253 251 12 332 317 294 277 257 263 268
227 222 215 207 207 202 206 204 200 197 189 191 189 186 193 200 198 202 205 228 212 196 199 200 200 199 207 213 227 232 239 241 235 239 251 239 325 320 318 308 299 290 285
229 224 217 212 206 204 207 206 202 199 195 197 196 192 194 202 201 201 211 221 223 196 194 199 196 198 207 217 230 242 244 249 241 233 240 255 244 14 331 315 310 309 302
229 223 219 212 210 209 205 201 198 198 196 200 205 200 200 205 207 203 208 217 222 202 193 196 199 207 212 227 251 257 252 248 243 240 236 246 266 265 277 306 303 299 298
226 219 213 209 210 210 205 199 195 195 200 201 203 208 209 211 214 209 213 216 210 198 194 196 206 219 227 239 254 260 255 245 240 239 243 248 258 271 270 284 295 296 295
226 219 212 206 205 202 199 196 193 196 201 201 201 206 209 210 214 212 216 215 207 198 195 199 206 214 229 240 249 257 256 250 242 240 245 248 250 256 263 275 271 275 283
226 219 212 207 202 194 193 196 198 204 200 200 204 207 210 210 213 212 220 212 207 204 202 198 200 203 217 224 236 253 254 244 245 243 250 250 248 249 259 271 272 273 266
227 222 217 213 207 199 199 200 206 204 206 207 208 210 212 212 213 215 216 214 209 206 202 197 194 203 208 202 224 246 258 237 228 240 247 247 252 249 254 263 267 268 270
239 231 224 220 214 207 199 191 183 192 198 204 209 210 213 214 213 214 219 216 210 208 206 203 202 202 208 207 219 229 236 243 266 233 238 246 252 252 256 262 263 269 269
253 242 234 227 218 210 195 193 193 201 209 214 212 211 208 212 217 218 221 218 214 212 211 210 210 214 211 209 212 240 262 278 252 259 239 245 256 254 255 258 262 264 265
264 249 237 228 220 207 198 199 201 210 217 213 204 205 207 209 216 223 221 215 214 215 214 212 213 216 217 216 209 215 231 245 246 251 260 256 256 249 252 255 259 261 260
275 254 235 222 221 208 202 203 207 209 207 204 207 207 210 211 215 218 221 221 219 217 215 215 217 220 224 224 221 217 217 221 225 233 253 267 268 260 255 250 251 257 259